Tacoma, WA
on Thursday, January 10, 2013

Thursday
Previous Day Next Day
Daily Summary
 ActualAverage (KSEA)Record (KSEA)
Temperature
Mean Temperature °F 42°F  
Max Temperature 37°F 47°F 59°F (1981)
Min Temperature 26°F 37°F 12°F (1949)
Degree Days
Heating Degree Days 34 23  
Month to date heating degree days 238  
Since 1 July heating degree days 2176  
Cooling Degree Days 0 0  
Month to date cooling degree days 0  
Year to date cooling degree days 0  
Moisture
Dew Point 33°F   
Average Humidity 98    
Maximum Humidity 100    
Minimum Humidity 87    
Precipitation
Precipitation 0.01 in 0.20 in 0.94 in (2006)
Month to date precipitation 1.89  
Year to date precipitation 1.89  
Snow
Snow 0.00 in in 3.00 in (2007)
Month to date snowfall  
Since 1 July snowfall  
Snow Depth in   
Wind
Wind Speed 2 mph   
Max Wind Speed 8 mph   
Max Gust Speed mph   
Visibility 9 miles   
Events Rain , Snow   

Key: T is trace of precipitation, MM is missing value
Source: NWS Daily Summary
Time(PST)TemperatureDew PointHumidity Pressure Visibility Wind DirectionWind SpeedGust SpeedPrecipitationEvents Conditions
12:48 AM 32.0°F 32.0°F 100% 29.95 in 10.0 miles SE 2.3 mph - N/A   Mostly Cloudy
12:58 AM 32.7°F 32.4°F 99% 29.97 in 10.0 miles SSE 1.2 mph - N/A   Mostly Cloudy
1:13 AM 32.0°F 32.0°F 100% 29.95 in 10.0 miles South 2.3 mph - N/A   Scattered Clouds
1:58 AM 31.3°F 30.9°F 99% 29.99 in 10.0 miles Calm Calm - N/A   Clear
2:28 AM 30.2°F 30.2°F 100% 29.98 in 10.0 miles East 2.3 mph - N/A   Mostly Cloudy
2:33 AM 32.0°F 30.2°F 93% 29.98 in 7.0 miles ESE 2.3 mph - N/A   Mostly Cloudy
2:38 AM 30.2°F 30.2°F 100% 29.98 in 2.5 miles SSE 2.3 mph - N/A   Mostly Cloudy
2:43 AM 30.2°F 30.2°F 100% 29.98 in 1.8 miles SSE 2.3 mph - N/A   Mostly Cloudy
2:48 AM 28.4°F 28.4°F 100% 29.98 in 1.0 miles SSE 3.5 mph - N/A   Mostly Cloudy
2:53 AM 28.4°F 26.6°F 93% 29.98 in 0.8 miles SSE 4.6 mph - N/A   Mostly Cloudy
2:58 AM 26.8°F 26.6°F 99% 30.00 in 0.8 miles South 2.3 mph - N/A   Mist
3:03 AM 26.6°F 26.6°F 100% 29.98 in 1.0 miles SSE 1.2 mph - N/A   Clear
3:08 AM 28.4°F 28.4°F 100% 29.98 in 1.8 miles Calm Calm - N/A   Clear
3:13 AM 28.4°F 28.4°F 100% 29.98 in 4.0 miles Calm Calm - N/A   Clear
3:23 AM 28.4°F 28.4°F 100% 29.98 in 1.8 miles North 1.2 mph - N/A   Scattered Clouds
3:28 AM 28.4°F 28.4°F 100% 29.98 in 1.2 miles Calm Calm - N/A   Mostly Cloudy
3:38 AM 28.4°F 28.4°F 100% 29.99 in 2.0 miles Calm Calm - N/A   Mostly Cloudy
3:43 AM 28.4°F 28.4°F 100% 29.99 in 3.0 miles Calm Calm - N/A   Overcast
3:44 AM 28.4°F 28.4°F 100% 29.99 in 4.0 miles Calm Calm - N/A   Overcast
3:58 AM 28.9°F 28.8°F 99% 30.01 in 10.0 miles Calm Calm - N/A   Overcast
4:08 AM 32.0°F 32.0°F 100% 29.98 in 10.0 miles Calm Calm - N/A   Overcast
4:18 AM 32.0°F 32.0°F 100% 29.99 in 10.0 miles NNW 2.3 mph - N/A   Overcast
4:27 AM 32.0°F 32.0°F 100% 29.99 in 10.0 miles Variable 2.3 mph - N/A   Overcast
4:58 AM 32.7°F 32.5°F 99% 30.01 in 10.0 miles Calm Calm - 0.00 in   Light Freezing Drizzle
5:03 AM 32.0°F 32.0°F 100% 29.99 in 10.0 miles Calm Calm - N/A   Overcast
5:35 AM 32.0°F 32.0°F 100% 30.00 in 10.0 miles SSW 1.2 mph - N/A   Overcast
5:47 AM 32.0°F 32.0°F 100% 30.00 in 10.0 miles Calm Calm - N/A   Overcast
5:51 AM 32.0°F 32.0°F 100% 30.00 in 10.0 miles Calm Calm - N/A   Overcast
5:58 AM 32.7°F 32.5°F 99% 30.03 in 10.0 miles Variable 1.2 mph - 0.00 in   Overcast
6:18 AM 32.0°F 32.0°F 100% 30.01 in 10.0 miles WSW 1.2 mph - N/A   Overcast
6:58 AM 32.5°F 32.4°F 99% 30.05 in 10.0 miles SSE 3.5 mph - N/A   Overcast
7:18 AM 32.0°F 32.0°F 100% 30.03 in 10.0 miles South 2.3 mph - N/A   Overcast
7:23 AM 32.0°F 32.0°F 100% 30.04 in 10.0 miles South 3.5 mph - N/A   Overcast
7:28 AM 32.0°F 32.0°F 100% 30.04 in 10.0 miles SSW 2.3 mph - N/A   Overcast
7:56 AM 32.0°F 32.0°F 100% 30.05 in 10.0 miles South 3.5 mph - N/A   Overcast
8:06 AM 32.0°F 32.0°F 100% 30.06 in 10.0 miles South 3.5 mph - N/A   Overcast
8:41 AM 32.0°F 32.0°F 100% 30.08 in 10.0 miles South 3.5 mph - N/A   Overcast
8:56 AM 32.0°F 32.0°F 100% 30.08 in 9.0 miles SE 4.6 mph - N/A   Overcast
9:52 AM 32.0°F 32.0°F 100% 30.08 in 10.0 miles South 4.6 mph - N/A   Overcast
9:56 AM 33.8°F 32.0°F 93% 30.08 in 10.0 miles South 4.6 mph - N/A   Overcast
10:38 AM 35.6°F 33.8°F 93% 30.10 in 10.0 miles SE 3.5 mph - N/A   Overcast
10:48 AM 35.6°F 35.6°F 100% 30.10 in 10.0 miles Calm Calm - N/A   Overcast
10:49 AM 35.6°F 35.6°F 100% 30.10 in 10.0 miles Calm Calm - N/A   Overcast
10:55 AM 35.2°F 35.1°F 99% 30.10 in 10.0 miles Calm Calm - N/A   Overcast
11:14 AM 35.6°F 35.6°F 100% 30.09 in 10.0 miles SSE 4.6 mph - N/A   Overcast
11:18 AM 35.6°F 35.6°F 100% 30.09 in 10.0 miles SSE 4.6 mph - N/A   Overcast
11:21 AM 35.6°F 35.6°F 100% 30.09 in 10.0 miles SE 5.8 mph - N/A   Overcast
11:22 AM 35.6°F 35.6°F 100% 30.09 in 10.0 miles SE 4.6 mph - N/A   Overcast
11:30 AM 35.6°F 35.6°F 100% 30.09 in 10.0 miles SSE 5.8 mph - N/A   Overcast
11:32 AM 35.6°F 35.6°F 100% 30.09 in 10.0 miles SE 5.8 mph - N/A   Overcast
11:55 AM 36.0°F 35.6°F 99% 30.09 in 10.0 miles SSW 5.8 mph - N/A   Overcast
12:10 PM 35.6°F 35.6°F 100% 30.09 in 10.0 miles SSW 5.8 mph - N/A   Overcast
12:21 PM 35.6°F 35.6°F 100% 30.09 in 10.0 miles South 5.8 mph - N/A   Overcast
12:32 PM 35.6°F 35.6°F 100% 30.08 in 10.0 miles South 5.8 mph - N/A   Overcast
12:39 PM 35.6°F 35.6°F 100% 30.08 in 10.0 miles South 5.8 mph - N/A   Overcast
12:54 PM 37.4°F 35.6°F 93% 30.08 in 10.0 miles SSW 8.1 mph - N/A   Overcast
12:55 PM 36.7°F 36.0°F 97% 30.08 in 10.0 miles SSW 8.1 mph - N/A   Overcast
1:56 PM 37.4°F 33.8°F 87% 30.08 in 10.0 miles SSW 8.1 mph - N/A   Overcast
2:44 PM 37.4°F 33.8°F 87% 30.08 in 10.0 miles SW 6.9 mph - N/A   Mostly Cloudy
2:58 PM 36.9°F 33.8°F 89% 30.10 in 10.0 miles South 5.8 mph - N/A   Mostly Cloudy
3:46 PM 37.4°F 33.8°F 87% 30.09 in 10.0 miles SSW 4.6 mph - N/A Rain Light Rain
3:58 PM 36.3°F 34.3°F 93% 30.12 in 10.0 miles SW 4.6 mph - 0.00 in Rain Light Rain
4:02 PM 35.6°F 33.8°F 93% 30.09 in 8.0 miles SSW 4.6 mph - N/A Rain Light Rain
4:11 PM 35.6°F 33.8°F 93% 30.09 in 8.0 miles SSW 5.8 mph - N/A Rain , Snow Light Rain Showers
4:15 PM 35.6°F 33.8°F 93% 30.09 in 9.0 miles SSW 4.6 mph - N/A Rain , Snow Light Rain Showers
4:27 PM 35.6°F 33.8°F 93% 30.09 in 10.0 miles South 4.6 mph - N/A Rain , Snow Light Rain Showers
4:30 PM 35.6°F 35.6°F 100% 30.09 in 10.0 miles South 4.6 mph - N/A Rain , Snow Light Rain Showers
4:33 PM 35.6°F 35.6°F 100% 30.09 in 10.0 miles South 4.6 mph - N/A Rain Light Freezing Rain
4:41 PM 35.6°F 33.8°F 93% 30.09 in 10.0 miles South 4.6 mph - N/A Rain Light Rain
4:43 PM 35.6°F 35.6°F 100% 30.09 in 10.0 miles South 4.6 mph - N/A   Overcast
4:53 PM 35.6°F 35.6°F 100% 30.09 in 10.0 miles SW 4.6 mph - N/A   Overcast
4:55 PM 35.6°F 35.6°F 100% 30.09 in 10.0 miles SW 4.6 mph - N/A Rain Light Rain
4:58 PM 35.4°F 35.1°F 99% 30.11 in 10.0 miles SW 3.5 mph - 0.01 in Rain Light Rain
5:03 PM 35.6°F 35.6°F 100% 30.09 in 9.0 miles SW 3.5 mph - N/A Rain Light Rain
5:08 PM 35.6°F 35.6°F 100% 30.09 in 10.0 miles SSW 3.5 mph - N/A Rain Light Rain
5:09 PM 35.6°F 35.6°F 100% 30.09 in 10.0 miles SSW 3.5 mph - N/A   Overcast
5:14 PM 35.6°F 35.6°F 100% 30.09 in 10.0 miles SSW 3.5 mph - N/A   Overcast
5:18 PM 35.6°F 35.6°F 100% 30.09 in 10.0 miles SW 3.5 mph - N/A Rain Light Rain
5:23 PM 35.6°F 35.6°F 100% 30.09 in 9.0 miles WSW 3.5 mph - N/A Rain Light Rain
5:26 PM 35.6°F 35.6°F 100% 30.09 in 8.0 miles WSW 3.5 mph - N/A Rain Light Rain
5:41 PM 35.6°F 35.6°F 100% 30.09 in 10.0 miles WNW 1.2 mph - N/A Rain Light Rain
5:43 PM 35.6°F 35.6°F 100% 30.09 in 10.0 miles WNW 2.3 mph - N/A   Overcast
5:53 PM 35.6°F 35.6°F 100% 30.09 in 10.0 miles Calm Calm - N/A   Overcast
5:58 PM 35.4°F 34.9°F 98% 30.11 in 10.0 miles Calm Calm - 0.00 in   Overcast
6:03 PM 35.6°F 35.6°F 100% 30.09 in 10.0 miles Calm Calm - N/A   Overcast
6:58 PM 33.3°F 32.9°F 99% 30.12 in 10.0 miles South 3.5 mph - N/A   Overcast
7:58 PM 33.6°F 33.4°F 99% 30.09 in 10.0 miles Calm Calm - N/A   Overcast
8:05 PM 33.8°F 32.0°F 93% 30.09 in 10.0 miles Calm Calm - N/A Rain Light Rain
8:16 PM 33.8°F 33.8°F 100% 30.09 in 10.0 miles NNW 2.3 mph - N/A Rain , Snow Light Rain Showers
8:58 PM 34.7°F 33.6°F 96% 30.09 in 10.0 miles Variable 2.3 mph - 0.00 in Rain Light Rain
9:00 PM 35.6°F 32.0°F 87% 30.09 in 10.0 miles NE 1.2 mph - N/A   Overcast
9:05 PM 33.8°F 32.0°F 93% 30.09 in 10.0 miles East 2.3 mph - N/A   Overcast
9:25 PM 33.8°F 32.0°F 93% 30.10 in 10.0 miles Calm Calm - N/A   Overcast
9:31 PM 33.8°F 32.0°F 93% 30.10 in 10.0 miles NNW 2.3 mph - N/A   Overcast
9:36 PM 33.8°F 33.8°F 100% 30.10 in 10.0 miles NNW 2.3 mph - N/A   Overcast
9:55 PM 33.8°F 32.0°F 93% 30.10 in 10.0 miles Calm Calm - N/A   Overcast
10:05 PM 33.8°F 32.0°F 93% 30.10 in 10.0 miles Calm Calm - N/A   Overcast
10:13 PM 33.8°F 32.0°F 93% 30.11 in 10.0 miles Calm Calm - N/A Rain Light Rain
10:23 PM 33.8°F 33.8°F 100% 30.11 in 10.0 miles Calm Calm - N/A   Mostly Cloudy
10:55 PM 32.0°F 32.0°F 100% 30.11 in 9.0 miles Calm Calm - N/A   Overcast
11:18 PM 32.0°F 32.0°F 100% 30.12 in 10.0 miles South 2.3 mph - N/A   Overcast
11:33 PM 32.0°F 32.0°F 100% 30.12 in 9.0 miles South 3.5 mph - N/A Rain Light Rain
11:36 PM 32.0°F 32.0°F 100% 30.12 in 9.0 miles South 3.5 mph - N/A   Overcast
11:55 PM 32.0°F 32.0°F 100% 30.12 in 10.0 miles WSW 3.5 mph - N/A   Overcast
Moon Phase
Jan. 10 Jan. 11 Jan. 18 Jan. 26 Feb. 03
Sunrise:07:54 AM (PST) Moon Rise:06:38 AM (PST)1/10
Sunset:04:41 PM (PST) Moon Set:03:56 PM (PST)1/10

Copyright © 2014 The Weather Underground, Inc.